TimeCST,TemperatureF,Dew PointF,Humidity,Sea Level PressureIn,VisibilityMPH,Wind Direction,Wind SpeedMPH,Gust SpeedMPH,PrecipitationIn,Events,Conditions,WindDirDegrees,DateUTC
12:53 AM,25.0,19.9,81,29.97,10.0,Calm,Calm,-,N/A,,Clear,0,2013-02-05 06:53:00
1:53 AM,25.0,21.0,85,29.96,9.0,Calm,Calm,-,N/A,,Clear,0,2013-02-05 07:53:00
2:53 AM,25.0,19.9,81,29.95,8.0,Calm,Calm,-,N/A,,Clear,0,2013-02-05 08:53:00
3:53 AM,24.1,19.0,81,29.94,9.0,Calm,Calm,-,N/A,,Clear,0,2013-02-05 09:53:00
4:53 AM,24.1,19.9,84,29.94,8.0,Calm,Calm,-,N/A,,Clear,0,2013-02-05 10:53:00
5:53 AM,25.0,21.0,85,29.96,7.0,WNW,4.6,-,N/A,,Clear,300,2013-02-05 11:53:00
6:53 AM,27.0,21.9,81,29.96,8.0,SSW,4.6,-,N/A,,Clear,200,2013-02-05 12:53:00
7:53 AM,25.0,19.9,81,29.97,5.0,Calm,Calm,-,N/A,,Haze,0,2013-02-05 13:53:00
8:53 AM,30.9,26.1,82,30.00,6.0,Calm,Calm,-,N/A,,Haze,0,2013-02-05 14:53:00
9:53 AM,39.0,28.0,65,30.00,9.0,West,9.2,-,N/A,,Clear,260,2013-02-05 15:53:00
10:53 AM,45.0,30.0,56,30.02,0.5,West,10.4,-,N/A,,Haze,260,2013-02-05 16:53:00
11:00 AM,48.0,30.9,52,29.99,-9999.0,West,8.1,-,N/A,,Clear,270,2013-02-05 17:00:00
11:13 AM,48.0,30.9,52,30.01,-9999.0,West,12.7,-,N/A,,Partly Cloudy,280,2013-02-05 17:13:00
11:53 AM,53.1,30.9,43,30.03,10.0,NW,11.5,-,N/A,,Clear,310,2013-02-05 17:53:00
12:53 PM,57.9,30.9,36,30.02,10.0,NNW,15.0,20.7,N/A,,Clear,330,2013-02-05 18:53:00
1:53 PM,61.0,30.0,31,30.00,10.0,North,13.8,-,N/A,,Clear,350,2013-02-05 19:53:00
2:53 PM,62.1,28.9,29,29.99,10.0,NW,16.1,20.7,N/A,,Clear,320,2013-02-05 20:53:00
3:53 PM,61.0,28.9,30,30.01,10.0,NW,9.2,-,N/A,,Clear,320,2013-02-05 21:53:00
4:53 PM,57.0,27.0,32,30.02,10.0,North,10.4,-,N/A,,Clear,10,2013-02-05 22:53:00
5:53 PM,48.9,27.0,43,30.04,10.0,NNE,5.8,-,N/A,,Clear,20,2013-02-05 23:53:00
6:53 PM,46.9,26.1,44,30.06,10.0,Calm,Calm,-,N/A,,Clear,0,2013-02-06 00:53:00
7:53 PM,37.0,26.1,65,30.09,10.0,NNE,4.6,-,N/A,,Clear,20,2013-02-06 01:53:00
8:53 PM,37.9,26.1,62,30.10,10.0,Calm,Calm,-,N/A,,Clear,0,2013-02-06 02:53:00
9:53 PM,34.0,27.0,75,30.11,10.0,Calm,Calm,-,N/A,,Clear,0,2013-02-06 03:53:00
10:53 PM,32.0,24.1,73,30.11,10.0,Calm,Calm,-,N/A,,Clear,0,2013-02-06 04:53:00
11:53 PM,30.0,23.0,75,30.12,10.0,Calm,Calm,-,N/A,,Clear,0,2013-02-06 05:53:00